EN

Hourly Weather Sankt Andra

Today, 27 October, Tuesday

Time Temperature Precipitation Wind Pressure Humidity
00:00 +12°C° 0.1 mm 1 mps 718 mmHg 96%
01:00 +12°C° 0 mm 1 mps 718 mmHg 97%
02:00 +12°C° 0.1 mm 1 mps 718 mmHg 97%
03:00 +12°C° 0.1 mm 1 mps 718 mmHg 97%
04:00 +12°C° 0.1 mm 1 mps 718 mmHg 97%
05:00 +12°C° 1.4 mm 1 mps 718 mmHg 97%
06:00 +12°C° 1.4 mm 1 mps 718 mmHg 98%
07:00 +12°C° 0 mm 1 mps 719 mmHg 98%
08:00 +12°C° 2.1 mm 1 mps 719 mmHg 98%
09:00 +12°C° 2.1 mm 1 mps 719 mmHg 98%
10:00 +12°C° 2.1 mm 1 mps 720 mmHg 97%
11:00 +12°C° 0.5 mm 1 mps 720 mmHg 97%
12:00 +12°C° 0.5 mm 1 mps 720 mmHg 96%
13:00 +12°C° 0.5 mm 1 mps 721 mmHg 96%
14:00 +12°C° 0.1 mm 1 mps 721 mmHg 95%
15:00 +12°C° 0.1 mm 1 mps 721 mmHg 94%
16:00 +12°C° 0.1 mm 1 mps 721 mmHg 94%
17:00 +11°C° 0 mm 1 mps 722 mmHg 94%
18:00 +11°C° 0 mm 1 mps 722 mmHg 94%
19:00 +9°C° 0 mm 0 mps 723 mmHg 94%
20:00 +9°C° 0 mm 0 mps 723 mmHg 94%
21:00 +9°C° 0 mm 0 mps 723 mmHg 94%
22:00 +9°C° 0 mm 0 mps 724 mmHg 93%
23:00 +9°C° 0 mm 0 mps 724 mmHg 94%

Tomorrow, 28 October, Wednesday

Time Temperature Precipitation Wind Pressure Humidity
00:00 +8°C° 0 mm 0 mps 724 mmHg 94%
01:00 +8°C° 0 mm 0 mps 724 mmHg 95%
02:00 +8°C° 0 mm 0 mps 724 mmHg 95%
03:00 +7°C° 0 mm 0 mps 724 mmHg 95%
04:00 +8°C° 0 mm 1 mps 724 mmHg 95%
05:00 +7°C° 0 mm 1 mps 724 mmHg 95%
06:00 +7°C° 0 mm 1 mps 724 mmHg 95%
07:00 +7°C° 0 mm 1 mps 725 mmHg 94%
08:00 +9°C° 0 mm 1 mps 725 mmHg 89%
09:00 +11°C° 0 mm 1 mps 725 mmHg 84%
10:00 +13°C° 0 mm 1 mps 725 mmHg 78%
11:00 +14°C° 0 mm 1 mps 725 mmHg 73%
12:00 +15°C° 0 mm 1 mps 725 mmHg 68%
13:00 +18°C° 0 mm 1 mps 725 mmHg 64%
14:00 +14°C° 0 mm 0 mps 725 mmHg 69%
15:00 +13°C° 0 mm 0 mps 725 mmHg 75%
16:00 +12°C° 0 mm 0 mps 725 mmHg 80%
17:00 +11°C° 0 mm 0 mps 725 mmHg 83%
18:00 +10°C° 0 mm 0 mps 726 mmHg 87%
19:00 +9°C° 0 mm 0 mps 726 mmHg 90%
20:00 +9°C° 0 mm 0 mps 726 mmHg 89%
21:00 +8°C° 0 mm 0 mps 726 mmHg 89%
22:00 +8°C° 0 mm 0 mps 727 mmHg 89%
23:00 +9°C° 0 mm 1 mps 727 mmHg 89%

Day after tomorrow, 29 October, Thursday

Time Temperature Precipitation Wind Pressure Humidity
00:00 +8°C° 0 mm 1 mps 727 mmHg 89%
01:00 +8°C° 0 mm 1 mps 727 mmHg 89%
02:00 +8°C° 0 mm 1 mps 727 mmHg 89%
03:00 +8°C° 0 mm 1 mps 727 mmHg 89%
04:00 +8°C° 0 mm 1 mps 727 mmHg 89%
05:00 +9°C° 0 mm 1 mps 727 mmHg 88%
06:00 +8°C° 0 mm 0 mps 727 mmHg 87%
07:00 +8°C° 0 mm 0 mps 727 mmHg 86%
08:00 +9°C° 0 mm 0 mps 728 mmHg 84%
09:00 +10°C° 0 mm 0 mps 728 mmHg 82%
10:00 +10°C° 0 mm 0 mps 728 mmHg 79%
11:00 +11°C° 0 mm 0 mps 728 mmHg 77%
12:00 +12°C° 0 mm 0 mps 728 mmHg 75%
13:00 +13°C° 0 mm 0 mps 728 mmHg 72%
14:00 +13°C° 0.1 mm 0 mps 728 mmHg 75%
15:00 +12°C° 0.1 mm 0 mps 728 mmHg 78%
16:00 +12°C° 0.1 mm 0 mps 728 mmHg 82%
17:00 +11°C° 0 mm 0 mps 728 mmHg 85%
18:00 +10°C° 0 mm 0 mps 729 mmHg 88%
19:00 +10°C° 0 mm 1 mps 729 mmHg 91%
20:00 +9°C° 0 mm 1 mps 729 mmHg 91%
21:00 +9°C° 0 mm 1 mps 730 mmHg 91%
22:00 +8°C° 0 mm 1 mps 730 mmHg 91%
23:00 +8°C° 0 mm 1 mps 730 mmHg 91%

30 October, Friday

Time Temperature Precipitation Wind Pressure Humidity
00:00 +8°C° 0 mm 1 mps 730 mmHg 91%
01:00 +8°C° 0 mm 1 mps 730 mmHg 91%
02:00 +8°C° 0 mm 1 mps 730 mmHg 92%
03:00 +8°C° 0 mm 1 mps 730 mmHg 92%
04:00 +8°C° 0 mm 1 mps 731 mmHg 93%
05:00 +7°C° 0 mm 0 mps 731 mmHg 92%
06:00 +7°C° 0 mm 0 mps 731 mmHg 92%
07:00 +7°C° 0 mm 0 mps 731 mmHg 91%
08:00 +8°C° 0 mm 0 mps 731 mmHg 86%
09:00 +10°C° 0 mm 0 mps 731 mmHg 81%
10:00 +11°C° 0 mm 0 mps 732 mmHg 75%
11:00 +12°C° 0 mm 0 mps 731 mmHg 73%
12:00 +14°C° 0 mm 1 mps 731 mmHg 70%
13:00 +14°C° 0 mm 1 mps 731 mmHg 68%
14:00 +14°C° 0 mm 1 mps 731 mmHg 72%
15:00 +13°C° 0 mm 1 mps 730 mmHg 75%
16:00 +13°C° 0 mm 1 mps 730 mmHg 79%
17:00 +12°C° 0 mm 1 mps 730 mmHg 82%
18:00 +11°C° 0 mm 1 mps 730 mmHg 86%
19:00 +10°C° 0 mm 1 mps 730 mmHg 89%
20:00 +10°C° 0 mm 1 mps 731 mmHg 89%
21:00 +10°C° 0 mm 1 mps 731 mmHg 89%
22:00 +10°C° 0 mm 1 mps 731 mmHg 89%
23:00 +9°C° 0 mm 1 mps 731 mmHg 89%

31 October, Saturday

Time Temperature Precipitation Wind Pressure Humidity
00:00 +9°C° 0 mm 1 mps 731 mmHg 89%
01:00 +9°C° 0 mm 1 mps 731 mmHg 90%
02:00 +9°C° 0 mm 1 mps 731 mmHg 90%
03:00 +9°C° 0 mm 1 mps 731 mmHg 90%
04:00 +9°C° 0 mm 1 mps 731 mmHg 91%
05:00 +8°C° 0 mm 1 mps 730 mmHg 90%
06:00 +8°C° 0 mm 1 mps 730 mmHg 90%
07:00 +8°C° 0 mm 1 mps 730 mmHg 89%
08:00 +11°C° 0 mm 1 mps 731 mmHg 82%
09:00 +13°C° 0 mm 1 mps 731 mmHg 74%
10:00 +15°C° 0 mm 1 mps 731 mmHg 66%
11:00 +16°C° 0 mm 1 mps 731 mmHg 63%
12:00 +18°C° 0 mm 1 mps 730 mmHg 60%
13:00 +18°C° 0 mm 0 mps 730 mmHg 57%
14:00 +16°C° 0 mm 0 mps 730 mmHg 64%
15:00 +15°C° 0 mm 0 mps 730 mmHg 70%
16:00 +14°C° 0 mm 0 mps 730 mmHg 77%
17:00 +13°C° 0 mm 0 mps 730 mmHg 81%
18:00 +12°C° 0 mm 0 mps 730 mmHg 85%
19:00 +11°C° 0 mm 0 mps 730 mmHg 89%
20:00 +10°C° 0 mm 0 mps 730 mmHg 89%
21:00 +10°C° 0 mm 0 mps 730 mmHg 90%
22:00 +10°C° 0 mm 0 mps 730 mmHg 90%
23:00 +9°C° 0 mm 0 mps 730 mmHg 91%

1 November, Sunday

Time Temperature Precipitation Wind Pressure Humidity
00:00 +9°C° 0 mm 0 mps 731 mmHg 91%
01:00 +9°C° 0 mm 0 mps 731 mmHg 92%
02:00 +9°C° 0 mm 0 mps 731 mmHg 92%
03:00 +9°C° 0 mm 0 mps 731 mmHg 93%
04:00 +9°C° 0 mm 0 mps 731 mmHg 93%
05:00 +9°C° 0 mm 0 mps 731 mmHg 94%
06:00 +9°C° 0 mm 0 mps 731 mmHg 94%
07:00 +9°C° 0 mm 0 mps 731 mmHg 94%
08:00 +10°C° 0 mm 0 mps 731 mmHg 90%
09:00 +12°C° 0 mm 0 mps 732 mmHg 85%
10:00 +13°C° 0 mm 0 mps 732 mmHg 80%
11:00 +14°C° 0 mm 0 mps 732 mmHg 78%
12:00 +15°C° 0 mm 0 mps 732 mmHg 75%
13:00 +16°C° 0 mm 1 mps 732 mmHg 73%
14:00 +15°C° 0 mm 0 mps 731 mmHg 77%
15:00 +14°C° 0 mm 0 mps 731 mmHg 82%
16:00 +13°C° 0 mm 0 mps 731 mmHg 87%
17:00 +12°C° 0 mm 0 mps 731 mmHg 89%
18:00 +11°C° 0 mm 0 mps 731 mmHg 92%
19:00 +10°C° 0 mm 0 mps 731 mmHg 94%
20:00 +9°C° 0 mm 0 mps 731 mmHg 94%
21:00 +9°C° 0 mm 0 mps 731 mmHg 94%
22:00 +9°C° 0 mm 0 mps 731 mmHg 94%
23:00 +9°C° 0 mm 0 mps 730 mmHg 94%
Show more

We Need Your Consent

Meteoprog and our Service Providers may store and access personal data such as cookies, device identifiers or other similar technologies on your device and process such data to personalise content and ads, as well as provide social media features and to analyse the traffic.

  • Store and/or access information on your device

    Cookies, device identifiers or other information can be stored or accessed on your device for the purposes indicated above.

  • Personalised ads and content, ad and content measurement, audience insights, and products development

    Ads and content can be personalised based on a profile. More data can be added to better personalise ads and content. Ad and content performance can be measured. Insights about the audience who saw the ads and content can be derived. Such data can be used to develop or improve user’s experience, systems and software.

By clicking ‘I Agree’ you will allow the use of indicated cookies, device identifiers, web beacons or other similar technologies. Your settings can be changed in the browser on your device.

For certain purposes, legitimate interests may be relied on, rather than consent. You can read more about this in our Privacy and Cookie Policy.